Weather History for Sedalia, MO

Change the Weather History Date:

Monday, August 26, 2013

  Actual Average Record
Temperature  
Mean Temperature 83 °F 76 °F  
Max Temperature 93 °F 88 °F 102 °F (2003)
Min Temperature 73 °F 66 °F 52 °F (1962)
Degree Days  
Heating Degree Days 0 0  
Month to date heating degree days 0 0  
Since 1 June heating degree days 9 6  
Since 1 July heating degree days 0 0  
Cooling Degree Days 18 12  
Month to date cooling degree days 281 349  
Year to date cooling degree days 1113 1229  
Since 1 June cooling degree days 965 1090  
Growing Degree Days 33 (Base 50)    
Moisture  
Dew Point 71 °F    
Average Humidity 68    
Maximum Humidity 87    
Minimum Humidity 49    
Precipitation  
Precipitation 0.00 in 0.14 in 1.95 in (1944)
Month to date precipitation 2.90 2.78  
Year to date precipitation 29.91 27.23  
Sea Level Pressure  
Sea Level Pressure 30.13 in    
Wind  
Wind Speed 8 mph (SSW)    
Max Wind Speed 13 mph    
Max Gust Speed 18 mph    
Visibility 10 miles    
Events      
T = Trace of Precipitation, MM = Missing Value Source: NWS Daily Summary

Daily Weather History Graph

Daily Weather History Graph

Search for Another Location

Airport:

Trip Planner

Search our weather history database for the weather conditions in past years. The results will help you decide how hot, cold, wet, or windy it might be!

Date:

Astronomy

Aug. 26, 2013 Rise Set
Actual Time 6:36 AM CDT 7:51 PM CDT
Civil Twilight 6:09 AM CDT 8:18 PM CDT
Nautical Twilight 5:36 AM CDT 8:51 PM CDT
Astronomical Twilight 5:01 AM CDT 9:26 PM CDT
Moon 11:07 PM CDT (8/26) 12:34 PM CDT (8/26)
Length of Visible Light 14h 09m
Length of Day
13h 14m
Waning Gibbous, 66% of the Moon is Illuminated
Aug 26
Waning Gibbous
Aug 28
Last Quarter
Sep 5
New
Sep 12
First Quarter
Sep 19
Full

Hourly Weather History & Observations

Time (CDT) Temp. Heat Index Dew Point Humidity Pressure Visibility Wind Dir Wind Speed Gust Speed Precip Events Conditions
12:53 AM 73.0 °F - 68.0 °F 84% 30.17 in 10.0 mi South 5.8 mph - N/A   Clear
1:53 AM 73.0 °F - 68.0 °F 84% 30.16 in 10.0 mi South 5.8 mph - N/A   Clear
2:53 AM 73.0 °F - 68.0 °F 84% 30.15 in 10.0 mi SSW 6.9 mph - N/A   Clear
3:53 AM 73.9 °F - 69.1 °F 85% 30.15 in 10.0 mi SSW 9.2 mph - N/A   Clear
4:53 AM 73.9 °F - 69.1 °F 85% 30.15 in 10.0 mi SSW 6.9 mph - N/A   Clear
5:53 AM 73.9 °F - 69.1 °F 85% 30.15 in 10.0 mi SSW 5.8 mph - N/A   Clear
6:53 AM 73.0 °F - 69.1 °F 87% 30.17 in 8.0 mi SSW 6.9 mph - N/A   Clear
7:53 AM 75.9 °F - 71.1 °F 85% 30.18 in 9.0 mi SSW 9.2 mph - N/A   Clear
8:53 AM 80.1 °F 83.8 °F 72.0 °F 76% 30.19 in 10.0 mi SW 11.5 mph - N/A   Clear
10:53 AM 86.0 °F 93.0 °F 73.0 °F 65% 30.18 in 10.0 mi SW 11.5 mph - N/A   Clear
12:53 PM 91.0 °F 99.3 °F 73.0 °F 55% 30.16 in 10.0 mi SW 10.4 mph 16.1 mph N/A   Clear
1:53 PM 91.9 °F 99.5 °F 72.0 °F 52% 30.14 in 10.0 mi SW 10.4 mph - N/A   Unknown
2:53 PM 91.9 °F 99.5 °F 72.0 °F 52% 30.12 in 10.0 mi WSW 10.4 mph - N/A   Partly Cloudy
3:53 PM 93.0 °F 100.7 °F 72.0 °F 50% 30.10 in 10.0 mi SW 8.1 mph - N/A   Partly Cloudy
4:53 PM 91.9 °F 98.4 °F 71.1 °F 50% 30.09 in 10.0 mi SW 12.7 mph 17.3 mph N/A   Clear
5:53 PM 91.0 °F 97.6 °F 71.1 °F 52% 30.08 in 10.0 mi SSW 10.4 mph - N/A   Clear
6:53 PM 89.1 °F 95.0 °F 71.1 °F 55% 30.08 in 10.0 mi SW 9.2 mph - N/A   Clear
7:53 PM 84.9 °F 90.7 °F 72.0 °F 65% 30.08 in 10.0 mi SSW 4.6 mph - N/A   Clear
8:53 PM 81.0 °F 85.2 °F 72.0 °F 74% 30.09 in 10.0 mi SSW 4.6 mph - N/A   Clear
9:53 PM 80.1 °F 83.6 °F 71.1 °F 74% 30.07 in 10.0 mi SSW 5.8 mph - N/A   Clear
10:53 PM 79.0 °F - 71.1 °F 77% 30.06 in 10.0 mi SSW 6.9 mph - N/A   Clear
11:53 PM 78.1 °F - 71.1 °F 79% 30.06 in 10.0 mi SSW 4.6 mph - N/A   Clear